Weather in Argasi

Greece     37°45′49″N   20°55′21″E
temp.,
°C
wind,
m/s
gust,
m/s
humid.,
%
clouds,
%
prec.,
mm/h
press.,
hPa
HPBL,
m
11 april, sun
sun1100:00+13wnw33528 0.0 1026574
03:00+13nw3353100 0.0 1025526
06:00+13n34566 0.0 1024584
09:00+13nne3359100 0.0 1024726
12:00+13nne22605 0.0 1025429
15:00+14w11543 0.0 1025403
18:00+14w12525 0.0 1024448
21:00+14ne22565 0.0 1024407
12 april, mon
mon1200:00+14ene2256100 0.0 1025407
03:00+14se115890 0.0 1024317
06:00+13ese22625 0.0 1023295
09:00+13ese32645 0.0 1023275
12:00+13ese22645 0.0 1024220
15:00+15s33645 0.0 1023421
18:00+16sw446256 0.0 1022430
21:00+15ssw2267100 0.0 1021231
13 april, tue
tue1300:00+15wsw226896 0.0 1021279
03:00+15nnw1168100 0.0 1021201
06:00+15n2368100 0.0 1020314
09:00+14ene117391 0.0 1020173
12:00+15nne016859 0.0 1020132
15:00+16ssw226427 0.0 1018202
18:00+17sw2257100 0.0 1017286
21:00+16n3369100 0.0 1017160
14 april, wed
wed1400:00+16s237063 0.0 1016185
03:00+16ssw45720 0.0 1015453
06:00+15sw33720 0.0 1014428
09:00+15w44760 0.1 1014437
12:00+16wnw77655 0.3 1015889
15:00+16nnw77633 0.3 10151230
18:00+15nw88625 0.0 10161135
21:00+14nw886561 0.0 1016802
15 april, thu
thu1500:00+14nw56661 0.0 1018734
03:00+14nw66650 0.0 1018796
06:00+13nw77644 0.0 10181013
09:00+14nnw66635 0.0 10191117
12:00+14n666025 0.0 10191051
15:00+15nnw76595 0.0 1019932
18:00+15nw775862 0.0 1018910
21:00+14nw665898 0.0 1018660